Wind_Speed
16 16 16 17 17 17 17 18 20 21 22 23 23 23 23 23 22 21 20 20 19 19 20 21 23 25 27 29 29 29 28 26 25 24 23 21 19 17 16 14 13 13 12 12 12 11 11 11 9 9 8 6 5 5 4 4 5 6 6 7 10 10 3 8 12 23 26 24 22 20 19 17 15 13 11 11 10 10 12 11 13 12 7 8 14 17 17 14
17 17 17 17 17 18 19 19 19 21 23 24 25 25 26 25 25 24 23 22 21 21 21 21 23 24 25 27 29 30 30 29 28 27 26 24 22 20 19 16 15 14 14 13 12 11 10 11 10 9 9 7 7 6 5 5 5 5 5 6 9 8 2 7 14 28 29 25 23 20 20 17 16 15 11 11 11 10 12 13 14 14 8 7 13 16 16 14
18 18 18 18 18 18 19 20 20 21 22 24 26 27 28 28 27 27 26 25 24 23 22 22 22 23 24 25 27 29 31 32 32 31 29 27 25 23 22 20 18 17 16 14 11 10 9 9 9 10 10 9 8 7 6 5 5 4 4 7 7 5 5 1 13 28 27 24 22 20 19 16 15 14 12 12 11 9 11 13 15 15 9 8 13 15 15 14
20 20 20 20 20 20 19 20 21 21 22 23 26 28 29 30 30 29 28 28 27 26 24 23 23 23 23 24 25 27 28 30 32 33 33 31 29 27 26 24 22 20 18 15 12 10 10 11 10 10 11 10 9 8 6 6 6 4 4 7 5 3 8 9 18 25 23 21 21 21 19 15 13 13 13 12 12 10 9 10 13 16 14 11 14 15 15 14
21 21 22 22 22 22 21 21 21 22 22 23 24 27 30 31 31 31 31 30 29 28 27 26 25 24 23 23 24 26 27 28 30 32 33 33 32 31 29 27 25 23 20 17 15 13 13 13 12 11 11 11 10 10 8 7 6 4 3 6 4 2 8 14 19 20 19 19 20 21 20 15 12 12 12 9 10 11 10 9 11 15 17 16 15 14 14 14
22 23 23 24 24 24 24 23 23 23 24 24 24 25 28 31 32 33 33 32 31 30 30 28 27 26 24 24 24 25 26 27 28 29 31 32 33 33 32 30 28 26 24 20 18 17 16 16 15 14 13 12 11 11 10 8 6 4 3 5 5 2 7 11 14 16 16 17 18 18 18 16 13 11 12 9 8 11 11 10 11 11 14 17 17 15 14 13
24 24 24 25 25 26 26 25 25 24 25 25 25 25 27 29 32 34 34 33 32 32 31 31 30 28 26 25 24 24 26 27 27 28 29 30 30 32 32 32 31 29 27 23 21 20 19 19 18 16 15 14 12 12 11 9 7 6 5 6 6 4 6 7 10 13 12 13 16 16 16 16 15 13 13 10 9 11 11 10 11 10 11 15 16 15 14 13
26 26 26 26 27 27 27 27 26 26 26 26 27 27 27 28 31 33 34 34 34 33 33 32 32 31 29 27 26 25 25 26 27 27 28 28 28 29 30 32 32 32 30 27 25 24 23 22 22 20 18 16 13 12 11 10 9 8 7 7 8 8 6 7 8 9 10 12 15 16 16 15 15 14 13 12 11 11 11 10 11 10 9 12 15 15 14 13
27 27 28 28 28 29 29 28 27 27 27 27 28 29 29 28 29 32 34 34 34 34 34 33 33 32 31 30 28 26 25 25 26 27 27 28 28 28 29 30 31 32 31 29 28 27 26 26 26 23 21 18 15 12 11 10 11 10 9 9 10 10 7 7 6 7 9 12 15 16 16 16 16 15 14 14 12 10 10 10 11 10 9 11 14 15 15 15
28 28 29 29 29 30 30 29 28 27 28 28 29 30 31 29 28 30 32 34 34 34 34 34 33 33 33 32 30 28 27 25 26 26 27 27 28 28 29 29 30 31 31 31 29 29 29 31 30 26 24 21 16 13 11 12 12 11 11 11 12 11 7 5 5 6 9 11 15 17 17 17 17 15 14 14 13 11 9 9 10 10 9 11 13 14 14 15
30 30 30 30 30 30 31 30 29 27 27 28 29 31 32 31 29 29 31 33 34 34 34 34 33 33 33 33 32 30 29 27 26 26 26 27 28 28 29 29 29 29 30 31 31 31 33 34 33 29 26 24 19 15 13 14 13 13 12 12 13 11 7 5 5 6 8 10 13 17 18 18 18 16 14 14 13 12 10 10 10 10 9 10 13 14 13 14
33 32 31 31 31 31 31 30 29 28 27 28 29 31 32 32 31 29 30 32 33 33 33 34 34 33 33 33 33 32 30 29 27 26 27 27 28 28 29 29 29 29 30 31 32 34 35 35 34 31 28 25 22 19 16 16 14 14 14 13 14 11 6 5 5 5 6 8 13 17 19 20 20 17 15 15 14 13 11 11 11 10 9 10 13 13 13 14
34 34 33 32 31 31 31 30 29 28 27 27 28 30 32 32 31 30 29 31 33 33 33 33 34 34 33 33 34 33 32 31 30 29 28 28 28 29 30 30 29 30 31 32 33 34 34 36 35 32 29 28 26 22 19 18 15 14 14 13 14 13 8 5 5 6 4 5 10 14 18 19 19 18 18 17 14 13 12 11 11 10 9 10 12 13 13 14
34 34 33 33 32 31 30 30 29 27 27 26 27 29 31 32 31 30 29 29 32 33 33 33 33 34 33 33 32 33 33 33 32 31 30 29 29 30 31 31 30 30 31 32 33 32 32 34 33 31 31 31 28 24 22 20 17 16 16 15 15 14 12 8 6 6 4 2 5 9 14 16 18 18 18 19 16 14 13 11 11 11 9 9 11 12 12 13
34 33 32 32 31 30 29 28 27 27 26 26 27 28 30 31 31 29 28 28 31 33 34 33 33 34 33 32 32 33 34 35 35 33 32 31 30 31 32 33 32 32 31 32 33 30 30 30 29 30 31 31 28 26 24 22 20 18 18 17 16 15 15 12 8 7 4 3 6 10 10 10 15 17 17 18 17 15 15 13 12 11 10 9 10 11 11 11
33 32 30 30 29 28 27 26 26 26 26 26 27 28 29 30 30 28 27 27 29 32 35 34 32 33 33 32 33 34 35 36 35 35 34 32 31 32 33 34 34 33 32 32 32 31 30 28 28 29 30 30 28 26 26 25 22 20 19 18 18 18 16 15 13 9 6 5 7 9 7 7 12 15 17 17 16 16 16 13 12 12 11 10 10 11 11 10
32 30 28 27 26 26 25 25 25 26 26 26 27 27 28 29 29 27 26 26 28 31 34 34 33 32 33 33 34 35 35 35 35 35 35 34 33 32 33 34 35 34 33 32 32 31 30 29 28 28 28 28 28 26 25 24 22 20 18 19 20 20 18 18 17 14 10 7 7 8 6 5 9 14 18 18 16 16 17 14 12 11 11 11 10 11 11 11
30 27 25 25 25 25 25 25 26 26 26 26 26 26 26 26 26 25 24 25 27 29 32 33 33 32 33 33 35 35 34 34 35 35 35 35 34 34 34 35 35 35 33 32 32 31 31 31 30 29 28 28 27 25 23 22 22 20 19 21 21 19 19 19 19 17 14 10 9 9 7 5 8 13 18 20 18 16 17 16 13 11 11 11 11 10 10 11
26 23 23 24 24 25 25 26 26 25 25 24 24 24 24 24 23 23 23 23 25 27 29 31 32 32 32 32 34 34 33 33 33 34 35 36 36 35 35 35 36 35 34 33 32 32 32 32 32 29 27 25 23 23 23 24 25 23 22 25 24 21 21 21 20 20 18 14 11 10 9 6 8 12 16 18 19 17 16 16 14 12 11 10 11 10 10 10
22 20 22 23 24 25 25 25 25 23 22 22 21 21 21 21 21 21 21 21 23 25 26 28 30 31 31 31 32 33 32 32 33 33 34 36 37 37 36 36 35 35 34 34 33 32 33 33 32 28 24 23 24 25 26 27 28 26 23 25 26 24 23 22 21 20 19 17 14 12 10 8 8 11 15 17 19 18 14 14 14 13 12 11 10 11 10 10
19 19 21 23 24 24 24 24 22 21 20 19 19 19 19 19 19 19 19 19 21 22 25 27 28 30 30 31 31 31 32 32 33 34 34 35 36 37 37 36 35 35 34 35 35 34 34 33 30 27 26 27 28 28 28 27 28 28 24 24 25 25 23 22 21 19 18 18 16 15 13 10 8 9 12 15 19 19 16 15 15 15 14 12 11 11 10 10
18 18 20 22 22 22 22 21 20 19 18 17 17 17 18 18 18 19 18 18 19 21 23 25 27 27 28 29 30 30 30 32 33 33 34 34 35 36 37 37 36 35 35 35 36 35 33 30 28 29 30 31 30 29 28 28 29 30 27 25 24 23 22 21 21 19 17 17 17 17 15 12 9 8 10 14 21 23 21 19 18 17 16 14 12 11 11 10
17 18 19 20 20 20 20 19 18 17 16 16 16 17 17 18 18 18 17 17 19 20 22 24 25 25 25 27 30 30 30 31 31 32 33 33 34 36 37 37 37 37 36 36 36 35 32 28 29 32 33 32 32 30 29 29 29 30 29 26 24 23 23 23 23 21 18 17 17 17 16 14 11 10 10 13 19 23 23 21 19 17 17 16 14 12 12 12
18 17 18 18 18 18 18 17 16 15 15 16 17 17 17 18 18 17 16 16 18 20 22 23 24 24 24 26 29 31 31 31 31 31 32 32 33 34 36 37 37 37 37 36 36 35 31 30 32 34 35 35 34 32 31 30 30 31 30 27 25 24 24 25 24 23 19 17 18 17 15 15 14 12 11 12 15 19 23 22 18 17 17 15 14 14 13 12
19 19 17 16 17 17 15 14 13 13 14 15 17 17 16 16 15 14 13 14 16 19 20 22 23 23 23 25 27 30 30 30 32 32 32 32 32 33 35 37 37 37 37 37 36 34 33 34 36 36 36 37 36 35 34 32 31 31 30 28 26 25 25 25 25 23 20 18 19 18 15 16 16 14 12 11 13 17 21 20 18 17 16 14 13 14 14 12
19 18 15 15 16 15 13 12 12 12 12 14 15 15 14 12 11 10 11 12 15 18 20 21 21 22 23 24 26 28 28 29 31 32 33 34 33 33 34 36 36 37 37 37 36 34 35 37 38 36 37 38 38 37 36 34 33 32 30 29 28 26 24 23 24 22 21 21 22 21 18 16 16 16 14 13 13 15 18 18 17 17 16 15 14 15 15 13
17 15 13 13 14 13 12 11 11 12 12 13 13 13 11 9 6 7 9 11 14 16 18 19 20 21 23 23 25 27 28 28 29 31 33 34 35 34 34 35 36 36 36 37 36 34 36 39 38 37 37 38 39 37 37 36 34 30 29 30 29 27 25 23 23 23 23 25 25 23 21 19 17 16 15 15 14 14 16 18 16 16 18 18 16 16 16 15
13 11 10 11 11 11 10 10 11 12 12 12 11 10 8 5 4 6 8 10 12 14 15 18 20 21 22 22 24 26 27 28 28 30 32 34 35 36 35 35 36 36 37 37 36 35 38 40 40 38 38 37 36 35 36 37 33 28 29 31 31 30 29 27 26 24 25 28 26 23 23 21 19 17 15 16 15 13 15 16 15 16 20 20 18 18 17 17
10 9 9 9 9 9 10 11 11 12 11 10 8 5 2 1 4 8 9 10 11 14 16 18 20 20 21 22 23 24 26 27 29 30 31 32 34 35 35 35 36 37 38 38 36 37 40 41 41 40 39 37 35 35 37 37 32 29 30 32 32 32 31 31 30 27 28 30 27 23 23 21 19 17 16 16 16 16 16 16 15 17 22 23 22 21 19 18
8 8 8 7 7 8 10 11 11 10 9 8 5 3 2 4 7 8 9 10 11 14 17 18 19 20 20 22 23 24 24 26 28 29 31 32 33 34 34 35 37 37 38 38 37 38 41 41 41 41 39 37 36 37 38 36 32 32 32 33 33 33 33 33 33 32 31 30 27 24 23 22 18 17 17 18 18 18 17 16 14 15 21 26 26 24 22 19
8 8 7 6 7 9 10 11 10 8 7 6 4 4 5 7 7 5 7 10 10 12 16 18 18 19 20 22 24 24 24 24 25 26 29 31 33 34 34 35 36 37 37 37 37 39 40 40 40 39 38 38 38 39 39 37 35 36 36 35 34 34 34 34 35 35 33 30 27 24 25 24 20 18 20 21 21 21 20 19 16 15 19 25 28 27 24 21
8 7 6 7 9 10 10 10 9 6 6 6 6 6 6 6 4 4 7 8 7 9 13 15 16 16 17 20 23 24 24 24 23 23 25 28 31 33 34 35 35 36 36 36 37 39 39 39 38 38 37 39 40 40 39 38 39 40 39 37 37 36 36 36 35 35 32 28 27 26 26 24 21 21 23 23 23 23 23 21 20 18 19 23 28 28 26 23
7 7 7 8 9 10 10 9 7 6 7 6 6 6 6 5 4 3 5 5 6 7 9 11 12 12 12 14 19 22 23 23 22 22 24 27 30 32 34 34 35 35 35 35 36 38 39 38 37 37 37 39 41 41 40 39 41 42 41 40 40 39 39 37 36 33 30 28 27 28 27 24 24 25 25 23 23 24 24 23 22 20 19 23 27 28 27 25
8 8 8 8 9 9 8 8 8 8 7 6 6 6 6 6 6 3 2 3 5 5 6 8 9 10 11 13 15 19 21 22 22 23 25 27 30 32 33 34 35 36 36 36 37 38 38 38 36 36 37 39 40 40 39 40 41 42 41 41 41 40 39 36 34 30 26 26 29 31 29 24 24 25 24 24 24 23 23 24 23 22 21 22 25 28 29 28
9 8 8 8 8 7 8 8 9 8 7 6 6 6 6 6 6 4 2 4 4 3 4 6 8 10 12 13 15 18 20 22 23 24 25 27 30 31 33 35 35 36 36 36 37 38 38 38 36 36 37 38 38 39 40 40 41 42 43 44 43 41 39 36 32 27 24 26 32 33 29 23 23 24 24 24 23 21 21 22 23 23 22 21 21 24 27 28
10 8 7 8 7 7 8 9 9 8 6 5 5 6 5 5 4 4 2 3 3 2 3 4 7 11 13 14 17 19 20 21 23 24 25 26 28 30 32 34 35 35 35 36 37 37 37 37 37 37 36 36 38 40 41 41 42 44 46 46 43 40 40 37 34 30 28 30 34 34 29 23 23 24 25 25 23 20 19 19 21 23 23 23 22 22 23 23
9 7 7 8 7 7 8 9 8 7 6 5 6 6 6 4 3 3 3 2 2 3 3 4 6 10 13 16 19 20 20 20 20 21 23 24 26 29 31 32 34 35 36 37 36 37 37 37 37 38 36 36 37 39 42 42 42 45 47 46 43 41 42 40 37 34 34 34 34 33 30 26 26 26 25 25 23 20 19 18 19 20 21 22 23 23 22 20
8 7 7 8 8 8 9 8 7 7 7 7 7 7 6 5 3 2 3 4 5 5 4 4 5 9 13 17 20 21 20 20 20 20 22 23 25 27 29 31 33 34 36 37 36 37 37 36 36 38 36 35 36 39 42 43 43 45 47 46 45 44 44 43 41 39 39 38 35 32 30 30 29 27 25 25 23 21 20 19 17 17 18 19 20 20 20 21
8 7 7 8 9 9 9 8 7 7 8 8 8 7 6 5 4 2 3 4 6 6 6 6 5 9 14 17 19 20 19 19 20 21 22 22 22 24 27 30 32 33 34 35 36 36 36 36 36 37 36 36 36 38 42 44 44 46 48 48 47 46 44 42 42 40 40 41 39 34 31 31 31 29 28 26 24 22 21 19 18 17 16 17 17 18 19 21
7 7 7 8 9 9 9 9 8 8 8 9 8 7 6 5 4 3 3 4 6 8 9 8 7 10 15 18 19 19 18 18 19 21 21 20 20 21 24 28 30 31 32 34 35 35 35 36 36 36 36 36 37 39 42 44 45 47 49 51 50 47 45 43 42 42 41 40 40 38 36 34 31 30 30 29 26 24 22 20 19 18 18 18 18 18 19 20
6 6 7 7 7 8 9 10 9 8 9 10 9 8 7 5 4 4 4 4 8 10 11 10 8 11 16 19 19 19 19 19 19 20 20 19 19 19 22 26 27 28 31 32 33 34 35 36 35 35 36 36 37 39 41 43 45 47 49 51 51 50 48 45 44 44 43 41 40 40 39 37 33 31 31 30 29 26 23 22 21 20 20 20 19 19 19 18
6 5 6 7 7 8 9 8 8 9 10 10 9 9 8 6 4 3 4 4 8 11 13 12 10 11 15 19 21 20 20 20 19 19 19 18 18 18 20 23 25 27 29 31 33 34 35 36 34 34 35 36 37 39 40 42 45 47 49 50 51 52 51 48 46 45 45 43 41 40 40 39 37 34 32 30 29 27 24 23 22 22 21 21 21 21 20 19
7 5 5 6 7 6 6 7 8 9 9 9 9 9 10 9 5 3 3 3 6 9 13 15 13 12 14 18 21 21 21 21 20 19 18 17 18 18 19 20 24 27 29 31 32 34 36 36 33 32 35 37 38 38 39 41 44 46 48 50 51 52 53 51 49 47 45 44 43 41 40 40 38 36 34 32 30 28 26 24 23 23 23 21 23 23 21 19
7 5 5 5 5 4 5 7 8 8 7 8 9 9 10 10 6 2 2 2 2 6 10 14 15 15 15 17 21 23 22 21 20 20 20 18 17 18 19 19 22 26 29 30 31 33 35 36 34 31 34 38 39 38 38 39 42 45 48 50 52 52 54 53 52 50 47 45 45 43 41 40 38 37 35 33 32 31 29 27 25 25 25 22 22 24 24 21
7 6 5 4 4 3 5 6 6 5 5 7 8 9 9 9 7 2 0 1 1 4 6 10 14 15 16 16 19 23 24 22 20 20 20 19 18 18 19 19 21 24 29 30 31 32 34 36 35 32 34 38 40 40 39 39 42 44 47 49 51 52 53 53 53 52 50 48 48 46 44 42 40 40 37 34 33 33 31 31 29 27 27 25 23 24 25 23
7 6 5 4 4 3 3 4 4 3 4 7 8 9 9 9 8 4 1 0 1 3 5 7 10 12 12 14 17 21 24 23 21 20 20 20 19 19 19 20 21 23 28 30 30 31 32 34 36 34 34 37 39 40 40 39 41 43 45 47 49 51 53 53 53 54 53 51 50 48 47 45 43 43 40 37 35 34 34 33 32 31 30 29 28 27 28 28
7 6 5 5 4 3 2 2 2 3 4 6 8 9 9 8 9 7 2 1 1 0 3 5 7 8 9 10 13 18 22 24 23 22 21 20 20 20 19 20 22 22 25 29 31 31 31 33 36 36 36 37 38 39 40 39 38 40 42 45 47 48 50 51 52 53 54 53 52 51 49 48 47 46 44 42 40 38 37 37 36 35 35 34 34 34 34 34
8 6 5 5 4 3 2 1 2 3 5 6 7 8 9 7 8 8 4 3 1 1 2 4 6 7 7 7 8 11 16 21 22 22 22 20 19 20 20 20 22 22 22 27 30 31 31 32 34 36 37 39 41 41 41 40 38 38 40 42 44 45 47 48 48 50 52 53 53 53 52 51 50 49 47 46 44 43 42 42 41 40 40 40 39 39 38 37
9 7 5 4 4 4 3 2 3 4 4 5 7 8 8 7 7 8 6 3 5 2 1 2 4 6 8 7 6 6 10 16 20 21 22 20 18 18 19 20 21 21 21 23 29 32 32 33 34 34 33 37 41 42 43 43 41 39 40 41 41 42 42 44 45 47 48 50 52 53 53 53 52 51 49 47 45 44 44 44 43 42 41 41 40 39 39 38
10 8 6 4 4 4 3 3 3 4 3 3 6 8 7 6 6 7 7 2 4 3 1 1 2 4 7 9 8 5 6 12 18 21 22 21 18 17 18 20 21 21 20 20 25 31 33 35 37 36 32 33 39 41 42 44 44 42 41 40 39 40 40 41 43 45 46 48 49 49 51 52 51 50 49 46 43 42 41 41 41 41 40 39 39 38 37 35
11 9 7 4 3 4 4 4 4 4 4 3 5 6 6 6 6 6 7 5 0 3 2 1 2 2 3 7 9 8 7 9 15 19 21 21 19 18 18 20 22 23 21 20 22 27 32 35 37 39 36 33 37 41 42 43 43 43 42 40 39 39 39 40 41 43 45 46 47 47 47 48 48 48 46 44 42 40 39 39 39 39 39 38 37 36 35 33
11 9 8 6 4 4 5 6 5 4 5 4 4 4 4 5 6 6 6 6 4 1 2 1 2 3 1 3 6 9 9 8 10 14 16 16 14 16 18 21 23 24 24 23 23 25 29 33 36 39 39 36 34 38 41 42 42 42 42 43 41 40 39 39 40 41 43 44 45 46 45 44 45 46 46 45 42 40 39 39 38 39 39 38 36 35 35 34
Wind_Direction
316 311 306 302 298 294 285 274 265 258 252 249 248 249 248 247 246 245 245 243 242 242 240 238 235 231 228 225 223 223 224 225 227 227 227 228 224 221 216 210 215 216 215 221 227 230 235 239 238 238 240 244 253 267 274 281 293 300 341 354 340 346 308 222 187 169 164 152 146 144 141 135 125 118 118 117 111 110 110 118 132 133 133 128 126 126 130 138
312 308 303 298 294 291 288 281 271 262 256 251 247 246 247 246 245 244 243 242 241 240 239 239 238 235 232 229 227 225 225 226 229 229 228 229 227 225 223 216 216 218 214 217 224 228 236 241 239 239 237 238 240 247 257 269 286 298 344 344 334 360 9 246 194 167 159 151 147 145 144 137 132 129 127 119 110 112 111 118 127 122 125 128 124 125 130 137
308 305 301 296 291 287 285 283 278 269 260 254 250 246 245 245 245 243 242 242 241 239 238 237 238 238 235 232 229 227 226 227 229 231 230 229 228 228 227 222 219 221 218 215 221 225 231 235 234 236 236 235 235 238 247 255 270 282 319 319 322 26 56 316 170 156 150 149 146 142 141 138 135 131 125 113 104 104 106 120 127 122 128 133 123 124 129 137
306 302 299 295 290 286 281 279 278 275 267 258 252 248 246 244 244 243 242 241 240 240 238 236 236 236 236 235 232 229 227 226 228 230 231 230 229 228 228 226 222 223 222 216 216 219 221 227 227 230 235 235 235 234 235 238 250 262 302 307 309 66 87 107 139 147 146 148 146 140 140 142 141 132 124 117 113 112 105 119 131 131 137 137 127 126 133 140
304 300 297 294 290 286 281 276 273 273 271 264 256 250 248 246 244 243 242 241 240 240 239 237 235 234 234 235 234 232 228 226 226 228 230 231 230 229 229 228 226 224 225 219 217 220 222 227 226 227 233 232 233 231 228 227 232 242 286 292 291 94 111 121 138 153 155 151 147 143 145 146 144 131 118 110 115 118 115 121 133 140 143 140 133 132 138 144
301 298 294 291 289 286 283 278 273 270 269 266 260 253 249 247 245 244 242 241 240 239 239 238 235 233 232 232 233 232 230 227 225 225 227 229 229 229 229 229 228 226 226 222 220 223 225 228 226 225 230 228 228 229 227 220 216 223 257 275 276 189 142 141 151 163 163 155 148 146 149 149 144 130 117 110 111 115 119 124 130 144 147 141 138 140 144 146
299 295 292 289 287 285 283 280 275 271 267 266 263 257 251 247 246 245 243 241 240 239 238 237 236 234 231 229 230 231 231 229 227 225 226 227 227 228 229 229 229 227 226 223 221 224 225 229 228 225 227 227 225 227 228 218 206 207 230 259 265 234 179 165 166 164 162 156 153 154 155 152 147 136 126 123 116 116 123 128 129 142 154 146 141 142 143 143
298 294 291 288 286 284 282 280 276 272 268 265 264 261 255 248 245 244 244 242 241 240 238 237 236 234 232 229 227 228 230 229 228 226 225 226 225 226 226 226 227 226 225 222 220 222 224 228 229 226 226 227 224 225 229 221 210 206 217 240 253 246 209 182 175 165 166 168 166 164 161 160 153 141 134 130 121 118 126 134 130 135 155 152 145 144 143 143
296 293 290 288 286 284 282 280 277 273 269 265 263 262 258 252 246 244 244 243 241 240 238 237 235 234 232 229 227 226 227 228 228 227 225 225 224 224 224 224 224 224 223 221 221 223 225 228 230 227 227 227 222 221 225 220 213 213 217 229 246 249 221 185 178 172 178 183 180 171 167 170 160 146 140 133 126 124 126 134 132 133 152 157 152 150 150 151
295 291 289 287 286 285 283 281 279 275 270 266 263 262 260 256 249 244 243 243 241 240 239 238 236 234 232 230 227 225 224 225 226 226 225 224 224 223 223 223 222 221 221 219 218 220 224 228 230 228 227 228 222 216 219 220 215 215 222 228 241 248 227 182 173 187 192 190 191 183 174 174 166 153 145 137 131 131 128 128 130 136 149 156 158 157 155 154
296 292 289 286 285 284 283 283 281 277 272 267 263 261 260 258 253 246 242 242 242 240 239 238 237 234 232 231 229 225 223 223 224 225 224 223 223 223 222 223 220 218 219 217 215 218 222 227 230 229 229 228 223 216 216 220 215 213 221 229 238 242 220 182 173 196 207 199 198 195 185 178 171 163 156 149 141 137 130 125 129 139 148 151 157 161 157 154
297 293 290 288 286 284 283 283 282 278 273 267 263 260 258 258 256 250 242 240 241 241 239 237 237 235 233 231 229 227 223 221 222 222 223 222 221 221 222 223 221 217 216 214 214 218 222 225 227 227 227 228 224 216 215 220 217 212 219 229 236 236 213 188 185 204 230 215 205 204 195 182 174 172 170 164 150 139 131 125 128 137 147 146 152 160 159 155
297 294 292 290 288 286 284 283 281 278 273 268 262 259 257 256 256 252 245 239 238 241 240 237 236 236 233 231 229 227 224 220 219 219 220 220 218 219 220 222 221 218 217 215 215 218 220 222 224 223 223 225 223 216 215 219 216 212 219 227 236 240 227 194 176 186 225 227 211 204 193 185 180 175 174 172 157 141 134 128 128 134 143 141 144 154 159 158
298 295 293 291 290 287 285 283 281 278 274 269 262 258 255 254 254 252 247 240 236 238 239 237 234 234 234 231 229 227 224 220 218 216 217 218 217 216 217 219 219 217 217 219 221 220 220 221 222 221 222 224 222 216 214 216 213 209 216 225 233 239 232 217 190 185 194 202 185 175 173 184 189 182 177 174 165 151 142 135 133 135 139 137 136 145 155 160
299 297 294 291 289 287 285 282 279 276 273 268 261 257 254 253 252 250 246 240 235 234 236 236 233 231 232 230 227 226 224 221 218 216 216 216 216 216 215 216 216 216 215 218 223 223 224 224 222 220 222 223 221 215 213 214 213 211 214 223 228 230 230 227 219 203 176 144 152 151 151 174 189 187 179 175 171 161 150 142 141 141 140 138 133 135 147 156
300 298 295 291 288 285 282 279 276 274 270 265 260 257 254 252 251 249 244 238 234 231 233 234 231 228 229 227 225 225 224 222 220 217 215 214 215 216 216 216 215 215 214 217 221 221 223 224 222 221 222 223 220 214 213 214 213 213 215 221 225 224 226 226 222 211 183 157 158 154 146 160 176 181 179 176 177 167 154 147 146 147 143 142 138 133 142 151
300 298 295 290 286 283 279 276 273 271 267 263 261 259 256 254 252 249 244 237 233 230 230 231 230 226 225 224 224 224 223 222 221 218 216 214 214 215 216 216 216 216 214 215 218 219 219 221 221 221 221 221 220 214 213 215 213 214 217 222 227 226 226 226 223 214 198 179 171 161 151 157 167 179 182 179 182 172 158 152 148 153 151 145 146 141 144 149
300 298 294 289 285 281 277 275 273 270 268 266 264 263 260 257 255 252 246 238 233 230 228 230 229 226 223 223 224 224 222 221 221 220 218 215 213 213 214 215 216 216 215 214 217 217 216 218 218 219 219 218 218 214 211 213 212 210 215 221 226 228 227 228 225 217 208 194 184 174 164 158 163 180 183 179 181 175 163 157 153 158 160 153 151 146 145 145
300 298 293 288 284 281 278 276 275 274 273 272 270 267 265 262 258 255 249 242 235 231 229 229 228 226 223 222 224 224 222 221 221 220 218 216 213 212 214 216 217 216 215 214 216 216 215 216 216 216 218 218 217 214 210 210 208 206 213 217 217 220 221 224 223 219 214 206 197 188 175 164 162 172 178 178 180 177 169 163 156 158 167 165 158 150 147 144
301 298 293 288 285 282 281 281 280 280 280 279 275 272 268 264 260 255 250 244 237 232 230 228 227 226 222 220 222 222 220 219 218 218 217 217 215 212 211 214 217 217 215 213 214 215 215 216 215 212 214 215 215 213 210 210 208 204 210 214 213 216 217 220 223 221 218 214 211 206 189 174 171 174 177 180 180 178 176 171 161 161 172 175 167 157 150 144
302 299 292 288 287 286 286 286 286 285 285 283 279 275 271 268 263 257 252 245 239 233 229 228 228 226 222 218 218 219 218 216 216 216 216 216 216 214 212 212 215 217 216 214 213 213 214 214 211 207 208 210 212 212 209 209 208 204 206 209 212 215 215 217 222 223 222 220 218 214 200 181 173 178 183 187 185 182 182 180 172 169 176 183 176 162 150 144
303 300 294 291 290 291 290 290 290 289 288 286 282 278 275 271 266 262 256 247 239 233 229 228 228 227 223 218 215 216 216 215 214 214 215 215 216 215 213 211 212 213 215 215 214 214 213 211 206 204 207 210 210 211 209 207 207 206 206 207 209 213 214 216 219 221 222 222 223 217 206 192 178 178 184 189 191 188 184 184 180 176 179 185 181 165 152 151
306 300 297 296 294 294 293 294 294 293 291 290 287 284 281 276 271 266 260 249 240 234 228 226 226 226 223 217 213 212 213 213 212 212 213 214 215 215 214 212 210 210 211 214 215 215 211 206 204 204 206 209 210 209 209 207 205 206 207 207 208 210 213 216 217 219 218 219 225 220 206 197 189 187 187 187 192 190 185 183 182 181 182 184 181 173 165 163
309 301 295 295 296 297 298 299 299 296 293 292 293 291 285 279 274 269 260 249 239 233 229 226 225 224 220 215 212 211 211 210 209 209 210 212 213 214 214 212 210 209 209 211 213 213 208 203 206 205 204 208 209 207 208 206 203 205 207 206 207 207 211 215 217 220 218 216 225 224 205 193 192 194 191 183 187 190 187 182 180 184 188 188 181 177 176 171
314 307 299 298 301 302 304 304 303 302 296 294 297 295 289 282 276 268 257 243 233 229 226 224 223 221 216 213 211 211 210 209 207 205 206 208 210 212 213 213 210 209 208 209 211 209 205 205 207 205 203 207 208 207 208 206 202 203 203 202 204 207 209 214 218 220 219 216 221 221 207 195 195 198 194 186 188 191 188 184 181 186 190 190 184 180 182 180
319 315 310 306 307 307 307 304 304 307 304 302 302 300 295 287 277 264 246 231 224 222 220 217 217 215 212 210 209 208 208 208 207 205 204 205 207 208 211 212 211 210 208 207 208 206 204 207 208 205 203 207 208 207 207 207 204 200 199 200 203 205 207 211 216 219 220 218 217 217 211 201 199 201 195 190 194 194 190 188 189 191 189 188 189 185 184 186
323 321 317 315 313 310 307 303 304 311 316 315 312 308 302 291 271 246 229 218 213 214 213 209 208 210 209 207 206 206 206 206 205 205 205 204 205 206 208 210 210 210 209 207 205 202 204 208 208 205 205 207 209 209 209 210 207 198 196 200 203 203 204 206 210 214 221 222 219 217 215 207 201 201 197 191 193 194 192 191 192 194 190 189 193 191 188 190
332 331 328 325 318 312 311 314 319 325 329 327 323 316 305 287 237 205 202 204 204 202 202 202 203 205 205 205 206 206 205 204 203 204 205 206 206 206 206 207 209 209 209 208 204 200 204 208 207 205 206 207 210 211 212 215 208 196 197 202 204 206 206 205 206 210 220 225 221 218 217 213 207 204 201 197 192 187 187 189 191 193 192 191 195 197 193 193
349 350 347 336 324 324 330 334 336 339 341 334 329 324 315 239 182 182 181 185 188 188 192 199 201 200 199 201 204 206 205 204 204 203 203 205 207 208 206 205 207 208 207 207 204 202 205 208 208 207 205 205 207 209 213 216 208 198 200 203 205 209 210 209 209 210 218 225 221 216 215 214 211 207 205 203 198 190 184 186 190 191 191 190 193 198 198 196
7 13 5 345 339 345 346 347 350 354 353 345 349 22 72 120 148 168 174 173 176 182 188 193 198 198 196 198 202 204 204 204 206 205 203 203 205 207 208 206 207 208 207 205 204 205 209 210 209 209 205 203 203 205 210 212 206 203 204 204 206 210 211 212 213 213 218 223 222 216 211 208 204 200 201 204 202 198 190 187 190 192 194 191 188 195 199 197
24 24 10 357 2 0 356 1 8 11 9 8 34 62 85 113 132 152 164 167 172 181 187 189 195 198 195 196 199 201 202 203 203 205 205 204 204 205 206 207 208 208 207 205 204 207 211 212 211 210 206 203 203 205 207 206 203 205 205 205 208 211 212 213 215 216 217 220 221 216 211 206 198 194 199 202 201 200 194 188 188 188 192 192 188 190 198 200
29 22 16 16 15 8 7 15 22 30 34 37 55 64 73 92 114 150 157 166 173 180 190 196 203 205 197 195 198 198 200 201 200 200 203 204 205 206 205 205 207 208 207 205 204 208 211 212 212 210 206 205 205 205 205 204 204 206 205 206 208 211 214 214 215 217 216 217 219 218 214 206 197 199 204 205 204 202 197 192 191 188 185 189 189 190 195 201
26 20 24 24 18 14 18 25 36 48 51 49 55 54 52 54 66 131 156 171 176 181 198 208 214 215 202 195 199 199 199 198 196 196 199 201 204 206 206 205 206 207 207 204 204 207 209 210 211 209 207 206 206 207 205 204 206 207 207 209 211 213 216 215 214 216 213 212 216 218 215 203 196 203 207 207 208 206 202 198 195 194 188 187 189 189 193 200
21 20 25 23 20 23 28 34 46 54 54 54 51 47 45 48 59 84 146 178 184 198 212 216 221 220 208 194 191 194 196 196 195 193 197 201 202 205 208 207 205 206 206 203 204 206 207 208 208 208 208 207 207 207 205 205 207 207 208 212 215 218 220 219 217 215 210 211 216 220 218 204 197 206 209 210 212 210 208 205 198 196 197 195 192 190 193 198
14 17 24 22 22 30 36 41 49 54 53 52 49 52 55 52 50 51 94 149 172 201 215 222 221 217 213 196 183 186 191 195 197 194 196 201 203 204 207 207 205 205 205 204 204 205 206 206 205 205 207 207 206 206 206 205 205 204 206 213 217 220 222 222 218 212 207 211 219 224 223 208 200 208 211 213 214 210 210 210 204 199 199 204 204 200 199 200
6 11 20 20 24 35 38 39 42 45 46 40 38 49 58 56 43 27 52 131 165 209 224 232 219 212 209 189 177 182 188 194 199 197 197 201 203 205 206 207 206 204 203 204 204 204 204 205 205 204 205 205 204 205 206 207 206 204 207 214 217 218 220 221 217 209 204 209 216 222 222 208 201 208 213 214 213 208 208 209 208 204 200 202 206 208 208 206
1 7 14 18 28 38 40 39 33 25 19 18 25 41 52 57 51 3 331 308 276 258 238 235 222 212 204 184 175 181 186 192 198 198 200 203 204 205 205 206 206 203 202 203 204 203 203 203 204 204 203 202 203 204 205 206 207 206 209 214 215 215 218 220 216 208 205 208 214 218 217 208 204 208 215 218 214 206 205 208 211 211 207 206 206 208 210 209
360 5 12 20 31 36 36 36 25 6 359 7 22 40 45 44 41 341 299 289 283 265 232 225 220 208 200 187 182 185 188 193 196 197 201 203 205 207 205 205 206 204 201 202 202 202 201 202 204 205 203 201 201 204 205 206 206 207 209 212 213 215 218 220 218 211 208 211 214 216 215 211 209 209 213 220 218 209 206 208 211 213 213 214 213 211 210 211
4 7 14 23 30 32 28 26 17 3 2 9 18 30 30 27 23 326 274 263 266 255 227 217 215 204 194 186 185 188 190 194 197 199 202 202 204 208 207 207 206 204 202 201 201 200 199 200 204 204 203 201 200 203 206 206 205 206 208 210 213 216 218 221 222 219 214 215 217 218 219 217 214 212 213 219 220 215 212 211 212 215 216 217 218 216 214 214
12 18 21 25 29 32 28 23 14 7 12 16 18 17 10 7 8 341 280 241 238 239 232 223 212 201 190 183 184 188 190 195 199 202 204 202 203 208 210 210 208 204 203 202 200 198 197 199 202 203 203 202 201 203 206 206 206 206 207 210 212 215 218 221 224 225 221 219 220 220 221 222 219 216 217 221 223 220 219 218 217 217 217 216 216 218 219 220
7 23 28 27 29 32 29 22 14 15 23 25 24 17 2 351 350 345 317 256 225 221 226 225 213 202 193 188 188 190 192 198 201 203 204 202 204 208 209 210 209 205 203 202 199 196 195 197 200 201 201 201 201 204 206 207 207 207 207 209 211 214 218 221 224 228 227 224 222 222 222 224 224 223 223 224 225 225 224 225 223 220 218 217 216 218 222 224
352 3 13 19 23 27 27 21 17 26 29 26 25 19 10 4 352 343 334 284 233 217 217 218 215 211 202 196 196 197 198 202 204 205 205 205 207 210 209 208 208 205 203 201 198 195 194 194 197 199 199 199 201 204 207 208 208 208 208 209 211 213 217 220 223 229 231 230 227 224 224 225 226 226 226 225 225 226 229 230 227 221 219 217 219 221 223 224
346 343 347 4 11 16 25 24 24 31 31 23 19 16 16 16 6 341 344 310 247 223 214 212 214 217 213 207 204 205 207 208 210 211 210 211 213 213 212 209 207 205 203 201 198 195 194 193 195 198 198 198 200 203 206 208 210 211 210 209 211 213 216 219 222 226 230 233 234 231 228 227 225 225 226 228 229 229 232 234 229 223 222 221 221 221 221 224
337 335 331 347 353 1 26 33 29 26 22 18 18 17 18 20 15 351 351 345 252 228 218 214 219 224 223 217 211 209 211 214 217 218 219 221 220 216 214 211 209 207 204 201 199 197 196 195 195 197 199 199 200 202 205 209 210 212 213 212 212 214 216 219 222 224 226 230 234 235 234 232 230 229 230 233 236 235 235 237 234 228 227 229 226 221 220 226
321 324 325 329 329 350 25 35 33 21 11 14 18 21 22 21 24 35 1 5 207 217 222 219 222 225 225 223 217 213 213 217 222 224 225 228 228 223 218 214 212 210 207 204 200 200 200 198 196 197 199 200 201 203 205 208 210 211 214 215 214 215 217 218 220 223 225 228 232 235 236 235 234 234 234 235 238 240 238 238 238 235 234 234 232 227 226 231
302 310 318 322 323 340 13 26 30 20 11 14 15 19 22 20 24 37 101 293 237 204 209 212 213 216 219 223 223 220 219 222 225 226 227 231 234 231 224 218 215 213 211 207 204 203 204 202 199 199 200 200 203 205 206 208 211 213 214 216 217 217 218 219 221 223 225 228 231 234 236 237 237 236 236 236 238 241 241 240 239 239 239 239 239 239 239 241
289 299 313 321 321 325 345 9 11 0 10 16 16 19 21 20 23 33 72 175 345 170 192 200 200 205 214 225 228 226 224 225 227 226 227 232 236 235 231 224 218 215 213 210 208 207 208 207 203 201 202 202 202 205 208 209 211 213 215 217 219 220 220 221 222 224 226 227 230 234 236 237 238 238 238 238 239 240 241 241 241 241 243 245 247 249 250 250
282 288 304 315 315 309 309 316 323 336 0 14 18 22 22 19 20 27 59 151 174 106 181 199 200 207 219 232 240 237 229 226 226 227 229 233 235 235 235 229 221 218 215 213 212 212 212 213 209 204 203 204 203 203 207 211 212 212 215 218 220 222 223 223 223 224 226 228 230 232 235 237 239 241 242 242 241 241 241 242 244 246 249 251 253 255 255 255
273 274 285 308 311 297 290 289 306 322 347 10 20 26 25 20 19 24 45 140 178 172 174 216 217 217 221 225 235 244 232 224 223 225 227 230 235 236 235 230 222 218 217 216 216 216 217 218 215 210 207 207 206 204 205 210 215 216 215 218 220 222 224 224 225 225 226 228 229 231 234 237 239 242 244 245 244 243 243 244 246 248 250 252 254 256 257 257
267 267 270 289 300 291 288 285 293 312 326 357 21 29 27 20 20 23 32 77 183 183 165 283 266 232 217 213 213 212 208 213 218 223 225 230 238 240 235 228 221 219 219 219 219 219 221 224 220 216 213 209 209 211 210 208 212 216 218 220 221 222 224 225 225 226 226 227 229 230 232 236 238 240 243 245 246 244 244 245 246 247 248 249 251 253 255 258
262 261 262 265 276 283 282 280 288 310 320 340 17 28 25 21 22 23 25 28 166 195 187 356 346 305 215 207 211 207 192 196 210 220 226 232 237 234 228 226 225 228 231 229 225 221 223 228 226 221 222 219 211 214 219 217 213 212 214 218 222 223 224 226 226 227 227 228 229 230 231 234 237 240 241 242 244 245 245 245 246 247 247 246 246 248 249 252
261 256 254 249 251 264 275 286 301 317 321 330 1 16 14 18 23 22 18 18 14 267 209 179 26 15 37 194 211 214 207 201 208 215 219 223 223 217 217 222 227 233 238 235 230 225 224 230 231 227 232 236 224 216 219 222 221 218 213 213 217 221 223 225 227 228 228 228 230 231 232 233 236 238 240 241 243 244 245 246 246 247 248 246 243 242 243 246
Height
5853 5852 5851 5850 5850 5849 5848 5848 5847 5847 5848 5848 5849 5849 5850 5851 5852 5853 5854 5854 5855 5856 5857 5859 5860 5861 5863 5864 5866 5867 5869 5871 5872 5874 5875 5876 5878 5880 5881 5883 5883 5885 5886 5887 5887 5888 5889 5889 5890 5891 5892 5892 5893 5893 5894 5894 5894 5894 5892 5891 5891 5891 5890 5889 5890 5891 5894 5896 5898 5900 5901 5903 5903 5904 5905 5905 5906 5906 5906 5906 5907 5908 5909 5908 5907 5907 5908 5911
5851 5850 5849 5848 5848 5847 5846 5846 5845 5845 5845 5845 5846 5846 5847 5848 5849 5850 5851 5852 5853 5854 5855 5856 5857 5859 5861 5862 5863 5865 5867 5869 5870 5871 5873 5875 5877 5878 5880 5882 5883 5884 5885 5886 5887 5888 5888 5889 5890 5891 5891 5892 5893 5893 5894 5894 5894 5894 5892 5892 5892 5891 5890 5889 5889 5891 5893 5896 5898 5900 5902 5903 5903 5904 5905 5906 5906 5907 5906 5906 5907 5907 5909 5910 5908 5908 5910 5912
5849 5848 5847 5846 5845 5845 5844 5844 5843 5843 5843 5843 5843 5843 5844 5845 5846 5847 5848 5849 5851 5852 5853 5854 5855 5856 5858 5860 5861 5862 5864 5866 5868 5869 5871 5873 5875 5877 5878 5880 5882 5882 5884 5886 5887 5887 5888 5888 5889 5890 5891 5892 5892 5893 5893 5894 5894 5894 5893 5893 5893 5892 5891 5889 5889 5892 5894 5896 5898 5900 5902 5904 5904 5904 5905 5906 5906 5908 5907 5907 5907 5907 5910 5911 5910 5910 5911 5913
5847 5846 5845 5844 5843 5842 5842 5841 5841 5841 5841 5840 5840 5841 5841 5842 5843 5844 5845 5846 5847 5849 5850 5851 5852 5854 5855 5857 5859 5860 5862 5863 5865 5866 5868 5870 5873 5874 5876 5878 5880 5881 5883 5885 5886 5887 5887 5887 5889 5890 5890 5891 5892 5892 5893 5894 5894 5894 5893 5894 5894 5893 5893 5891 5892 5894 5896 5897 5898 5900 5902 5904 5904 5904 5905 5905 5906 5908 5908 5908 5908 5908 5910 5911 5911 5911 5913 5914
5845 5844 5843 5841 5840 5839 5839 5838 5838 5838 5838 5838 5838 5838 5838 5838 5839 5840 5842 5843 5844 5846 5847 5849 5850 5851 5853 5855 5856 5857 5859 5861 5862 5864 5865 5868 5870 5872 5874 5876 5878 5880 5882 5884 5886 5886 5886 5886 5888 5889 5889 5890 5891 5892 5893 5894 5894 5894 5894 5895 5895 5894 5894 5894 5894 5896 5896 5897 5899 5900 5901 5903 5905 5905 5905 5905 5906 5907 5908 5908 5909 5909 5910 5911 5911 5912 5914 5915
5843 5841 5840 5839 5837 5836 5836 5835 5835 5835 5835 5835 5834 5835 5835 5835 5836 5837 5838 5840 5841 5842 5844 5845 5847 5848 5850 5852 5854 5855 5856 5858 5859 5861 5863 5865 5867 5869 5871 5873 5876 5879 5881 5883 5885 5885 5885 5885 5887 5888 5888 5889 5891 5892 5892 5894 5894 5894 5895 5895 5895 5895 5894 5894 5895 5897 5898 5899 5901 5902 5902 5903 5904 5905 5905 5906 5907 5907 5909 5909 5910 5912 5911 5911 5912 5913 5915 5916
5840 5838 5837 5836 5834 5833 5833 5832 5832 5831 5831 5831 5831 5831 5831 5832 5832 5833 5834 5836 5837 5839 5840 5842 5844 5845 5847 5849 5851 5852 5854 5855 5857 5859 5860 5862 5865 5867 5869 5871 5874 5876 5879 5882 5883 5883 5884 5884 5885 5887 5888 5889 5890 5891 5892 5893 5894 5895 5895 5895 5895 5895 5895 5895 5896 5898 5901 5902 5903 5903 5903 5904 5904 5905 5906 5907 5908 5908 5910 5911 5911 5912 5913 5912 5912 5913 5915 5917
5836 5835 5834 5832 5831 5830 5829 5829 5828 5828 5828 5828 5828 5828 5828 5828 5828 5829 5830 5832 5834 5835 5837 5838 5840 5842 5844 5846 5848 5850 5851 5853 5855 5856 5858 5860 5862 5864 5866 5869 5871 5873 5876 5879 5881 5881 5882 5883 5883 5885 5887 5888 5890 5891 5892 5893 5894 5894 5895 5895 5895 5895 5895 5896 5898 5900 5902 5903 5903 5903 5904 5905 5906 5906 5907 5908 5909 5909 5911 5912 5912 5913 5914 5914 5913 5914 5916 5917
5832 5831 5830 5829 5828 5826 5826 5825 5825 5824 5824 5824 5824 5824 5824 5825 5825 5826 5826 5828 5830 5831 5833 5835 5836 5838 5841 5843 5845 5847 5849 5851 5852 5854 5856 5858 5860 5862 5864 5866 5868 5870 5873 5876 5878 5880 5881 5881 5881 5884 5886 5887 5889 5891 5892 5893 5893 5894 5894 5895 5894 5895 5896 5897 5899 5900 5902 5902 5903 5904 5905 5906 5906 5907 5908 5909 5909 5911 5912 5913 5913 5913 5914 5914 5914 5915 5916 5917
5828 5827 5826 5825 5824 5822 5821 5821 5821 5821 5820 5820 5820 5819 5819 5820 5821 5822 5823 5824 5825 5827 5829 5831 5833 5835 5837 5840 5842 5844 5846 5848 5850 5852 5854 5856 5857 5860 5861 5863 5865 5868 5870 5873 5876 5877 5878 5878 5879 5882 5884 5886 5888 5890 5891 5892 5893 5893 5894 5894 5894 5895 5897 5898 5899 5899 5900 5902 5902 5904 5904 5905 5906 5907 5908 5909 5910 5912 5913 5913 5913 5914 5915 5914 5914 5915 5916 5918
5823 5822 5821 5820 5819 5818 5817 5817 5817 5816 5816 5816 5815 5815 5815 5816 5817 5818 5819 5820 5821 5823 5825 5827 5829 5831 5833 5836 5838 5841 5843 5845 5847 5849 5851 5853 5855 5857 5859 5860 5863 5865 5868 5870 5872 5874 5875 5876 5878 5881 5883 5885 5888 5890 5891 5891 5892 5893 5893 5893 5894 5895 5897 5898 5899 5898 5899 5900 5901 5903 5903 5904 5906 5907 5908 5910 5910 5912 5913 5913 5914 5915 5915 5915 5915 5916 5917 5918
5818 5817 5816 5816 5815 5814 5813 5812 5812 5812 5811 5811 5811 5811 5811 5812 5813 5814 5816 5817 5818 5819 5821 5823 5825 5827 5830 5832 5834 5837 5840 5843 5845 5847 5848 5851 5853 5855 5857 5858 5860 5863 5864 5866 5868 5870 5872 5874 5876 5879 5882 5884 5886 5888 5890 5890 5891 5892 5893 5893 5893 5894 5896 5897 5899 5899 5898 5899 5900 5902 5903 5904 5905 5906 5908 5910 5910 5912 5912 5913 5914 5915 5916 5916 5916 5916 5917 5919
5813 5812 5811 5811 5810 5809 5808 5808 5807 5807 5807 5807 5806 5806 5806 5807 5809 5810 5811 5813 5814 5815 5817 5819 5821 5824 5826 5828 5831 5834 5837 5839 5841 5843 5845 5848 5850 5852 5854 5855 5858 5860 5862 5863 5865 5867 5869 5870 5873 5877 5880 5881 5883 5887 5889 5889 5891 5892 5892 5892 5892 5894 5896 5897 5898 5898 5898 5898 5899 5901 5903 5904 5905 5906 5908 5909 5910 5911 5912 5913 5915 5916 5917 5917 5916 5917 5918 5919
5809 5808 5807 5806 5805 5804 5803 5803 5802 5802 5802 5802 5802 5802 5802 5803 5804 5805 5807 5809 5810 5811 5813 5815 5817 5820 5822 5825 5828 5830 5833 5835 5837 5839 5842 5844 5847 5849 5851 5853 5855 5857 5860 5861 5862 5865 5866 5868 5871 5876 5877 5878 5882 5886 5888 5888 5890 5891 5891 5891 5892 5893 5895 5896 5897 5898 5898 5898 5899 5901 5902 5904 5905 5906 5907 5908 5910 5911 5912 5914 5915 5917 5918 5918 5917 5917 5919 5920
5804 5803 5802 5801 5800 5799 5798 5798 5797 5797 5797 5797 5797 5797 5798 5798 5800 5801 5802 5804 5805 5807 5808 5810 5813 5816 5818 5821 5824 5825 5828 5830 5833 5836 5838 5841 5844 5846 5848 5849 5851 5854 5857 5859 5861 5864 5866 5868 5871 5874 5875 5877 5881 5884 5886 5887 5888 5890 5890 5890 5891 5892 5894 5895 5897 5897 5898 5899 5900 5901 5902 5903 5904 5905 5907 5909 5910 5911 5912 5913 5915 5917 5918 5918 5918 5918 5920 5921
5800 5799 5798 5796 5795 5794 5794 5793 5793 5792 5792 5792 5792 5793 5793 5794 5795 5796 5798 5799 5800 5802 5804 5806 5809 5812 5814 5817 5819 5821 5824 5827 5830 5833 5835 5838 5841 5843 5845 5846 5848 5851 5854 5857 5859 5862 5865 5868 5870 5871 5873 5876 5879 5882 5884 5885 5887 5889 5889 5890 5891 5892 5893 5895 5896 5897 5898 5899 5901 5902 5902 5903 5904 5905 5907 5909 5910 5911 5912 5913 5915 5917 5918 5919 5919 5920 5921 5922
5795 5794 5793 5792 5790 5790 5789 5789 5788 5788 5788 5788 5788 5788 5789 5790 5791 5792 5793 5794 5796 5797 5800 5802 5804 5807 5810 5812 5814 5816 5820 5824 5827 5829 5832 5835 5837 5840 5843 5844 5846 5849 5852 5855 5857 5860 5863 5866 5868 5870 5872 5874 5877 5880 5883 5885 5887 5888 5889 5890 5890 5892 5893 5894 5895 5896 5898 5899 5900 5901 5902 5903 5904 5905 5907 5908 5911 5912 5912 5914 5915 5917 5918 5919 5920 5920 5921 5922
5791 5790 5789 5787 5786 5786 5785 5785 5784 5784 5784 5784 5784 5785 5785 5786 5787 5788 5790 5791 5792 5794 5796 5798 5801 5803 5806 5808 5810 5813 5818 5821 5824 5827 5830 5832 5834 5836 5839 5841 5844 5847 5850 5853 5855 5858 5861 5863 5865 5868 5870 5872 5876 5879 5882 5884 5886 5887 5888 5889 5889 5892 5893 5894 5895 5896 5897 5899 5900 5901 5902 5903 5904 5905 5905 5907 5910 5911 5913 5914 5915 5917 5918 5920 5921 5921 5921 5922
5787 5786 5785 5784 5783 5782 5781 5781 5781 5781 5781 5781 5781 5781 5782 5783 5784 5785 5786 5788 5789 5790 5792 5794 5797 5799 5802 5805 5807 5811 5815 5818 5821 5824 5827 5829 5831 5833 5836 5839 5841 5844 5848 5851 5853 5856 5858 5860 5863 5866 5869 5873 5876 5879 5881 5881 5883 5885 5886 5886 5887 5890 5892 5893 5894 5895 5897 5898 5900 5901 5902 5903 5904 5905 5906 5907 5909 5910 5912 5914 5915 5916 5918 5919 5920 5921 5922 5922
5784 5783 5782 5781 5780 5779 5778 5778 5778 5778 5778 5778 5778 5779 5779 5780 5781 5782 5783 5785 5786 5787 5789 5791 5794 5796 5799 5802 5804 5808 5811 5815 5817 5820 5823 5825 5828 5831 5833 5836 5839 5842 5846 5849 5851 5854 5856 5858 5861 5866 5870 5873 5874 5875 5877 5879 5881 5883 5884 5885 5886 5888 5890 5892 5893 5895 5897 5898 5900 5901 5902 5903 5903 5904 5906 5907 5908 5910 5912 5914 5915 5916 5917 5918 5920 5921 5923 5922
5781 5780 5779 5778 5777 5776 5776 5776 5775 5775 5775 5775 5776 5776 5777 5777 5778 5778 5780 5782 5783 5785 5787 5788 5791 5793 5796 5799 5801 5804 5808 5811 5814 5816 5819 5822 5825 5828 5831 5833 5837 5840 5844 5846 5848 5851 5853 5856 5861 5865 5868 5869 5870 5872 5874 5877 5879 5882 5883 5884 5885 5887 5890 5892 5894 5896 5897 5898 5900 5901 5902 5903 5903 5904 5906 5907 5909 5910 5911 5913 5914 5915 5916 5917 5918 5920 5922 5923
5779 5778 5777 5776 5775 5774 5774 5774 5773 5773 5773 5773 5773 5773 5774 5774 5775 5776 5777 5779 5780 5782 5784 5786 5788 5790 5794 5796 5799 5801 5804 5807 5810 5813 5816 5819 5823 5826 5828 5831 5834 5837 5841 5844 5846 5848 5851 5856 5860 5863 5864 5865 5867 5870 5872 5875 5877 5880 5881 5883 5885 5887 5889 5892 5893 5895 5897 5898 5899 5900 5901 5902 5903 5904 5905 5906 5907 5908 5910 5912 5913 5914 5915 5917 5917 5919 5921 5923
5777 5776 5775 5774 5773 5773 5772 5772 5772 5771 5771 5770 5770 5771 5771 5771 5772 5773 5774 5776 5777 5779 5781 5783 5785 5788 5791 5794 5796 5798 5800 5803 5807 5811 5813 5816 5820 5823 5826 5829 5831 5834 5838 5841 5844 5847 5851 5855 5858 5859 5860 5863 5865 5868 5870 5873 5876 5878 5880 5882 5884 5886 5888 5890 5892 5894 5896 5898 5899 5899 5900 5901 5902 5903 5904 5905 5906 5908 5909 5911 5913 5915 5915 5916 5917 5918 5919 5922
5775 5774 5773 5772 5772 5771 5771 5771 5770 5769 5769 5769 5768 5768 5769 5769 5769 5770 5771 5773 5775 5776 5778 5780 5783 5786 5788 5790 5793 5795 5797 5800 5804 5807 5810 5813 5817 5820 5823 5826 5829 5832 5835 5838 5842 5846 5851 5853 5853 5855 5858 5860 5863 5866 5868 5871 5874 5876 5879 5881 5883 5885 5886 5888 5890 5893 5895 5898 5899 5899 5900 5901 5902 5902 5904 5905 5906 5908 5909 5910 5912 5914 5915 5916 5917 5917 5918 5920
5773 5772 5771 5771 5771 5771 5770 5770 5769 5768 5768 5767 5767 5766 5766 5766 5767 5768 5769 5770 5772 5774 5776 5778 5781 5783 5785 5788 5790 5792 5795 5798 5801 5804 5807 5810 5813 5817 5820 5823 5826 5829 5832 5836 5840 5844 5848 5849 5849 5852 5855 5857 5860 5863 5866 5869 5872 5875 5878 5880 5882 5883 5885 5887 5890 5892 5895 5896 5897 5898 5899 5900 5901 5902 5903 5904 5906 5907 5908 5910 5912 5913 5915 5917 5918 5918 5918 5919
5772 5771 5771 5771 5770 5770 5770 5769 5768 5767 5767 5766 5765 5765 5764 5764 5764 5765 5766 5768 5769 5771 5773 5776 5778 5780 5783 5785 5787 5790 5793 5795 5798 5801 5804 5807 5810 5814 5817 5820 5824 5826 5829 5833 5837 5842 5845 5845 5846 5850 5853 5855 5857 5861 5863 5866 5870 5873 5877 5879 5880 5882 5884 5887 5889 5891 5893 5893 5894 5896 5898 5900 5900 5901 5903 5904 5905 5906 5908 5910 5912 5913 5915 5916 5918 5919 5919 5919
5771 5771 5770 5770 5770 5770 5769 5768 5767 5767 5766 5765 5764 5763 5763 5762 5763 5764 5764 5766 5767 5769 5772 5774 5776 5778 5781 5783 5785 5788 5790 5793 5796 5799 5801 5804 5807 5810 5814 5817 5821 5824 5827 5831 5835 5839 5841 5842 5844 5848 5851 5853 5856 5860 5862 5864 5868 5873 5876 5877 5878 5881 5883 5885 5887 5889 5890 5890 5892 5895 5897 5898 5900 5901 5903 5904 5905 5907 5908 5910 5911 5913 5915 5916 5917 5919 5919 5919
5770 5770 5770 5770 5769 5769 5768 5767 5767 5766 5765 5764 5763 5762 5762 5761 5762 5762 5763 5765 5766 5769 5771 5773 5774 5776 5779 5781 5783 5785 5788 5791 5794 5796 5799 5802 5805 5807 5811 5815 5818 5821 5825 5828 5833 5836 5837 5839 5842 5846 5849 5852 5856 5860 5862 5863 5867 5872 5874 5875 5877 5879 5881 5883 5885 5886 5887 5887 5890 5893 5895 5897 5899 5901 5903 5904 5905 5906 5908 5910 5911 5912 5914 5915 5916 5918 5919 5919
5770 5770 5770 5770 5769 5768 5768 5767 5766 5765 5764 5763 5763 5762 5761 5761 5761 5762 5763 5764 5766 5767 5769 5771 5773 5775 5777 5779 5781 5784 5786 5788 5791 5794 5797 5800 5803 5806 5808 5812 5815 5818 5822 5826 5830 5833 5833 5836 5840 5843 5847 5851 5855 5858 5859 5862 5867 5871 5872 5873 5875 5876 5878 5880 5882 5883 5883 5885 5888 5892 5893 5896 5898 5900 5901 5903 5904 5905 5907 5909 5910 5911 5912 5914 5915 5917 5918 5919
5770 5770 5770 5770 5769 5769 5768 5767 5766 5765 5764 5763 5763 5762 5762 5762 5762 5763 5763 5765 5766 5767 5768 5770 5771 5773 5776 5778 5780 5782 5784 5786 5789 5792 5795 5798 5801 5804 5806 5809 5812 5815 5819 5824 5828 5830 5831 5834 5838 5841 5846 5850 5852 5854 5856 5861 5866 5868 5868 5870 5872 5873 5875 5877 5879 5880 5881 5883 5887 5890 5892 5894 5896 5897 5899 5900 5901 5903 5905 5907 5908 5910 5911 5912 5914 5915 5917 5918
5770 5770 5770 5770 5770 5769 5768 5767 5766 5765 5764 5764 5763 5763 5763 5763 5764 5765 5765 5766 5767 5768 5768 5769 5770 5772 5774 5776 5778 5780 5782 5785 5787 5790 5793 5796 5798 5801 5804 5807 5810 5814 5818 5822 5825 5827 5830 5833 5836 5841 5845 5848 5850 5851 5854 5859 5862 5863 5864 5866 5868 5870 5872 5873 5875 5877 5880 5883 5885 5887 5889 5891 5894 5896 5896 5897 5899 5901 5903 5905 5906 5908 5910 5911 5913 5915 5916 5917
5771 5771 5771 5771 5770 5769 5768 5767 5767 5766 5765 5765 5764 5764 5765 5765 5766 5766 5767 5767 5768 5769 5770 5770 5771 5772 5774 5776 5777 5779 5781 5783 5786 5789 5792 5794 5797 5799 5801 5805 5809 5813 5816 5820 5823 5825 5828 5831 5835 5840 5843 5846 5847 5849 5852 5856 5858 5858 5860 5862 5864 5867 5868 5870 5872 5875 5879 5883 5884 5885 5886 5890 5893 5893 5893 5895 5897 5899 5901 5902 5904 5906 5908 5910 5912 5914 5915 5916
5772 5772 5772 5771 5770 5770 5769 5768 5768 5767 5766 5766 5766 5766 5767 5767 5768 5768 5768 5769 5769 5770 5771 5771 5772 5773 5775 5777 5778 5779 5780 5782 5785 5788 5790 5792 5794 5797 5800 5803 5807 5811 5815 5818 5820 5822 5826 5829 5833 5837 5841 5843 5845 5848 5851 5853 5854 5855 5857 5859 5861 5863 5865 5867 5870 5873 5878 5882 5882 5882 5884 5888 5890 5890 5891 5894 5895 5897 5899 5901 5903 5905 5907 5908 5910 5912 5914 5915
5773 5773 5772 5772 5771 5771 5770 5769 5768 5767 5767 5767 5767 5768 5768 5769 5769 5769 5769 5770 5770 5771 5771 5772 5773 5774 5775 5776 5778 5779 5780 5782 5784 5786 5788 5790 5792 5796 5799 5802 5805 5808 5812 5815 5817 5819 5823 5826 5831 5835 5837 5840 5843 5847 5849 5851 5852 5855 5857 5858 5860 5862 5864 5867 5870 5875 5880 5882 5881 5880 5883 5887 5889 5889 5891 5893 5894 5896 5898 5899 5901 5904 5906 5907 5908 5910 5912 5913
5774 5773 5773 5772 5772 5771 5771 5770 5769 5768 5768 5768 5769 5769 5769 5769 5770 5770 5770 5771 5771 5771 5772 5772 5773 5774 5775 5776 5777 5778 5780 5781 5783 5785 5787 5789 5791 5794 5797 5799 5802 5805 5809 5812 5814 5817 5820 5824 5828 5831 5834 5838 5842 5844 5847 5848 5850 5853 5855 5856 5858 5861 5864 5867 5871 5876 5880 5880 5878 5878 5882 5887 5889 5889 5890 5891 5893 5896 5897 5899 5900 5902 5905 5907 5909 5910 5911 5912
5775 5774 5773 5773 5772 5772 5771 5771 5770 5769 5769 5770 5770 5770 5770 5770 5770 5770 5771 5771 5772 5772 5772 5772 5773 5773 5775 5776 5777 5778 5779 5781 5782 5784 5786 5788 5790 5792 5794 5797 5800 5803 5807 5810 5812 5815 5818 5822 5825 5828 5831 5835 5838 5841 5843 5846 5848 5850 5851 5853 5857 5860 5863 5865 5869 5874 5876 5876 5875 5877 5882 5886 5887 5887 5888 5890 5892 5895 5897 5899 5900 5901 5903 5906 5908 5910 5912 5913
5776 5775 5774 5774 5773 5773 5772 5772 5771 5771 5771 5771 5771 5771 5771 5771 5771 5771 5771 5772 5772 5772 5772 5773 5773 5773 5775 5777 5777 5778 5779 5781 5782 5784 5785 5787 5789 5791 5793 5795 5798 5801 5805 5807 5809 5812 5816 5819 5822 5825 5828 5832 5835 5838 5840 5843 5846 5848 5850 5853 5856 5858 5859 5862 5866 5870 5872 5872 5873 5876 5880 5884 5885 5886 5887 5889 5891 5894 5896 5897 5899 5901 5902 5904 5907 5909 5911 5913
5776 5776 5775 5774 5774 5773 5773 5773 5773 5772 5772 5771 5771 5771 5771 5771 5771 5771 5771 5771 5772 5772 5772 5773 5773 5774 5775 5777 5777 5778 5779 5781 5782 5783 5785 5786 5788 5790 5792 5794 5796 5799 5802 5804 5807 5810 5814 5817 5820 5823 5826 5829 5833 5835 5837 5840 5843 5846 5849 5852 5854 5855 5857 5859 5862 5866 5869 5870 5872 5875 5878 5881 5883 5885 5887 5888 5890 5893 5895 5896 5898 5900 5902 5904 5905 5908 5910 5910
5777 5776 5776 5775 5774 5774 5773 5773 5773 5773 5772 5771 5770 5770 5770 5770 5771 5771 5771 5771 5771 5772 5772 5773 5774 5774 5775 5777 5777 5778 5780 5781 5782 5783 5784 5786 5788 5789 5791 5792 5794 5797 5800 5802 5805 5808 5812 5815 5817 5820 5824 5827 5830 5832 5834 5837 5840 5844 5847 5849 5851 5853 5855 5858 5860 5864 5867 5868 5871 5874 5876 5878 5881 5884 5885 5887 5889 5891 5893 5895 5897 5899 5901 5902 5904 5906 5907 5908
5778 5777 5776 5776 5775 5774 5774 5773 5773 5773 5772 5771 5770 5770 5770 5770 5770 5770 5770 5770 5771 5771 5772 5773 5774 5775 5776 5776 5777 5778 5780 5781 5782 5783 5784 5786 5787 5788 5790 5791 5793 5796 5799 5801 5803 5807 5810 5812 5815 5818 5822 5824 5827 5829 5832 5835 5838 5841 5843 5845 5848 5851 5853 5856 5858 5861 5864 5866 5869 5872 5874 5877 5880 5883 5884 5886 5887 5890 5892 5894 5896 5898 5899 5901 5902 5903 5904 5906
5778 5777 5777 5776 5775 5775 5774 5774 5773 5773 5772 5771 5771 5771 5771 5770 5770 5770 5770 5770 5770 5770 5772 5772 5774 5775 5776 5776 5777 5778 5779 5780 5781 5782 5784 5785 5786 5787 5788 5790 5793 5795 5798 5800 5802 5805 5808 5810 5813 5816 5819 5822 5824 5827 5830 5832 5835 5838 5841 5843 5846 5849 5851 5853 5855 5857 5861 5864 5867 5870 5872 5875 5879 5881 5883 5884 5886 5889 5891 5892 5894 5896 5897 5899 5900 5901 5903 5905
5778 5777 5777 5776 5775 5775 5774 5774 5774 5773 5772 5772 5771 5771 5771 5771 5770 5770 5769 5769 5769 5769 5770 5772 5773 5774 5775 5776 5777 5778 5779 5780 5781 5782 5783 5784 5785 5787 5788 5790 5792 5794 5796 5798 5801 5804 5806 5809 5812 5814 5817 5820 5823 5825 5827 5830 5833 5835 5838 5841 5844 5847 5849 5851 5853 5855 5858 5861 5864 5867 5870 5872 5876 5879 5881 5883 5885 5887 5889 5891 5893 5894 5895 5897 5898 5899 5901 5902
5777 5777 5776 5776 5775 5775 5775 5775 5774 5773 5773 5772 5772 5772 5771 5770 5770 5770 5769 5768 5768 5769 5770 5771 5772 5774 5775 5776 5777 5778 5779 5780 5781 5781 5782 5784 5785 5787 5788 5790 5791 5793 5795 5797 5800 5802 5805 5808 5810 5812 5815 5818 5820 5823 5825 5828 5831 5833 5835 5838 5841 5844 5846 5848 5851 5853 5856 5858 5861 5865 5867 5870 5873 5876 5878 5880 5883 5885 5887 5888 5891 5892 5893 5894 5895 5897 5899 5900
5777 5776 5776 5776 5775 5775 5775 5775 5774 5774 5773 5773 5772 5772 5771 5771 5770 5769 5769 5768 5768 5768 5769 5770 5771 5772 5774 5775 5776 5777 5779 5780 5780 5781 5782 5784 5785 5787 5788 5789 5790 5792 5794 5796 5799 5801 5803 5806 5809 5810 5813 5815 5817 5820 5822 5825 5828 5830 5833 5836 5839 5841 5843 5846 5848 5851 5854 5856 5858 5861 5864 5867 5871 5873 5876 5878 5880 5882 5884 5886 5888 5890 5891 5892 5893 5894 5897 5898
5777 5776 5776 5776 5776 5776 5775 5775 5774 5774 5774 5773 5773 5773 5772 5771 5770 5769 5769 5768 5768 5768 5769 5769 5770 5771 5772 5774 5775 5777 5778 5779 5780 5781 5782 5783 5785 5786 5787 5789 5790 5792 5793 5795 5797 5800 5802 5804 5806 5808 5810 5812 5815 5817 5819 5822 5825 5828 5830 5833 5836 5838 5840 5843 5845 5848 5851 5853 5855 5858 5861 5864 5868 5870 5873 5876 5878 5879 5882 5883 5885 5887 5889 5890 5891 5892 5894 5895
5777 5776 5776 5776 5775 5775 5775 5775 5775 5774 5774 5774 5773 5773 5772 5772 5771 5770 5769 5768 5768 5768 5768 5769 5770 5770 5771 5773 5774 5775 5777 5778 5779 5781 5782 5783 5783 5785 5786 5788 5789 5791 5792 5794 5796 5798 5800 5802 5804 5806 5807 5810 5812 5815 5817 5820 5823 5825 5828 5831 5833 5836 5838 5840 5843 5845 5848 5851 5853 5856 5858 5861 5864 5867 5870 5873 5875 5877 5879 5880 5883 5884 5886 5887 5888 5889 5891 5892
5777 5777 5776 5775 5775 5775 5775 5775 5775 5774 5774 5774 5773 5773 5772 5772 5771 5770 5769 5769 5768 5768 5768 5769 5769 5770 5771 5771 5772 5773 5774 5776 5778 5779 5780 5781 5782 5783 5785 5786 5788 5789 5791 5793 5794 5796 5798 5799 5800 5802 5804 5807 5810 5813 5815 5818 5820 5823 5826 5828 5831 5833 5836 5838 5841 5843 5845 5848 5851 5853 5855 5858 5860 5863 5866 5869 5872 5874 5876 5877 5879 5881 5883 5884 5885 5886 5887 5889
5776 5776 5776 5775 5775 5775 5775 5775 5775 5774 5774 5774 5773 5773 5772 5772 5771 5770 5769 5769 5769 5768 5768 5768 5769 5769 5770 5770 5770 5771 5772 5774 5776 5777 5779 5780 5781 5782 5783 5784 5786 5788 5789 5791 5793 5794 5795 5796 5797 5799 5801 5803 5807 5810 5813 5816 5818 5821 5823 5826 5828 5831 5833 5836 5838 5840 5843 5846 5848 5850 5852 5855 5857 5859 5862 5865 5868 5871 5872 5874 5876 5878 5880 5881 5882 5883 5884 5885
5775 5775 5775 5775 5775 5775 5775 5774 5774 5774 5774 5773 5773 5772 5772 5772 5771 5770 5769 5769 5769 5769 5768 5768 5768 5768 5768 5769 5769 5769 5770 5771 5773 5775 5776 5778 5780 5781 5782 5783 5785 5786 5788 5790 5791 5792 5793 5794 5795 5797 5799 5801 5805 5807 5810 5813 5816 5818 5821 5823 5826 5828 5830 5833 5835 5837 5840 5842 5845 5847 5849 5851 5854 5856 5859 5861 5864 5867 5869 5871 5873 5876 5877 5878 5879 5880 5880 5882
5774 5774 5775 5775 5774 5774 5774 5774 5774 5774 5773 5773 5772 5772 5772 5772 5771 5770 5769 5769 5769 5769 5769 5769 5768 5768 5768 5768 5768 5768 5768 5769 5771 5773 5774 5776 5778 5779 5780 5782 5783 5785 5786 5788 5789 5790 5792 5792 5793 5795 5797 5800 5803 5806 5808 5810 5813 5815 5818 5821 5823 5826 5828 5830 5832 5834 5836 5839 5841 5844 5846 5848 5851 5854 5856 5858 5860 5863 5866 5868 5870 5872 5874 5875 5877 5878 5878 5879
5773 5773 5774 5774 5774 5774 5774 5773 5773 5773 5773 5772 5772 5772 5772 5771 5771 5770 5769 5769 5769 5769 5769 5769 5769 5768 5768 5768 5769 5768 5768 5768 5769 5771 5772 5774 5776 5777 5779 5780 5782 5783 5784 5786 5787 5789 5790 5790 5792 5794 5795 5796 5801 5804 5806 5808 5810 5812 5815 5818 5821 5823 5825 5827 5829 5831 5833 5836 5838 5841 5844 5846 5848 5850 5853 5855 5857 5860 5862 5864 5866 5868 5870 5872 5874 5876 5877 5877
5772 5772 5773 5773 5773 5773 5773 5773 5773 5773 5772 5772 5772 5772 5772 5771 5771 5770 5769 5769 5768 5769 5769 5769 5769 5769 5768 5768 5768 5769 5769 5769 5769 5770 5771 5772 5774 5776 5777 5778 5780 5781 5782 5784 5785 5787 5788 5789 5790 5792 5792 5793 5797 5801 5804 5806 5808 5809 5811 5814 5817 5820 5822 5824 5826 5828 5831 5833 5836 5838 5841 5843 5845 5847 5849 5852 5854 5856 5859 5860 5862 5864 5866 5869 5871 5873 5875 5876